Regional Weather Roundup
Issued by NWS Goodland, KS

Home | Current Version | Previous Version | Graphics & Text | Print | Product List | Glossary On
Versions: 1 2 3 4 5 6 7 8 9 10 11 12 13 14 15 16 17 18 19 20 21 22 23 24 25 26 27 28 29 30 31 32 33 34 35 36 37 38 39 40 41 42 43 44 45 46 47 48 49 50
000
ASUS43 KGLD 261559
RWRGLD

GOODLAND FORECAST AREA HOURLY WEATHER ROUNDUP
NATIONAL WEATHER SERVICE GOODLAND KS
1000 AM MDT WED APR 26 2017

...OFFICIAL OBSERVATIONS...

CITY           SKY/WX    TMP DP  RH WIND       PRES   REMARKS
GOODLAND KS    CLOUDY    40  28  62 N21G30    29.79S
HILL CITY KS   MOSUNNY   46  29  51 N20G28    29.77F
IMPERIAL NEB   CLOUDY    37  27  67 N22G29    29.82S
MCCOOK NEB     CLOUDY    41  29  62 N20G26    29.80S
AKRON CO       SUNNY     42  28  57 N17G24    29.80F
BURLINGTON CO  NOT AVBL
LIMON CO       SUNNY     41  30  65 N20G26    29.82F
$$

...UNOFFICIAL OBSERVATIONS...

CITY           SKY/WX    TMP DP  RH WIND       PRES   REMARKS
LENORA KS        N/A     41  32  70 MISG        N/A
NORTON KS      MOSUNNY   43  27  52 NW21G29   29.75F
SHARON SPRINGS   N/A     40  31  71 N18G26      N/A
TRENTON NEB      N/A     37  32  82 N12         N/A
KIT CARSON CO    N/A     40  33  75 MISG        N/A
$$




USA.gov is the U.S. government's official web portal to all federal, state and local government web resources and services.